Regional Weather Roundup
Issued by NWS Charleston, SC

Current Version | Previous Version | Text Only | Print | Product List | Glossary Off
Versions: 1 2 3 4 5 6 7 8 9 10 11 12 13 14 15 16 17 18 19 20 21 22 23 24 25 26 27 28 29 30 31 32 33 34 35 36 37 38 39 40 41 42 43 44 45 46 47 48 49 50

000
ASUS42 KCHS 020410
RWRCHS
REGIONAL WEATHER ROUNDUP
NATIONAL WEATHER SERVICE CHARLESTON SC
1200 AM EDT TUE SEP 02 2014

NOTE: "FAIR" INDICATES FEW OR NO CLOUDS BELOW 12,000 FEET WITH NO
SIGNIFICANT WEATHER AND/OR OBSTRUCTIONS TO VISIBILITY.

NOT ALL STATIONS ARE QUALITY CONTROLLED BY THE NATIONAL
WEATHER SERVICE. USE DATA WITH CAUTION...ESPECIALLY
DEWPOINT OBSERVATIONS.

SCZ027-030-031-034>040-042>050-020500-
...SOUTH CAROLINA...

CITY           SKY/WX    TMP DP  RH WIND       PRES   REMARKS
N CHARLESTON   CLOUDY    81  76  84 CALM      30.09S
WATERFRONT PRK   N/A     82 N/A N/A S7          N/A
FORT JOHNSON   NOT AVBL
MOUNT PLEASANT FAIR      81  79  94 S6        30.09S
JOHNS ISLAND   CLEAR     82  79  89 CALM      30.10S HX  93
PINOPOLIS        N/A     82  75  78 S3        30.02R
MONCKS CORNER    N/A     81  79  94 CALM      30.09S
SUMMERVILLE    FAIR      77  77 100 CALM      30.10S
BEAUFORT MCAS  PTCLDY    82  77  84 SW5       30.09F HX  90
BEAUFORT ARPT  FAIR      81  79  94 S5        30.09F
HILTON HEAD IS PTCLDY    82  79  89 S5        30.11S HX  93
GEORGETOWN     NOT AVBL
WALTERBORO     MOCLDY    79 N/A N/A CALM      30.10S
ORANGEBURG     MOCLDY    78  73  84 SE3       30.11R
BARNWELL       FAIR      75  73  94 N3        30.11R
AIKEN          FAIR      77  77 100 CALM      30.13F
MANNING        FAIR      81  81 100 S6        30.10S HX  91
KINGSTREE      NOT AVBL
COLUMBIA       MOCLDY    77  73  87 CALM      30.08F
SUMTER         MOCLDY    78  76  92 SW7       30.08S
FLORENCE       MOCLDY    79  72  79 SW5       30.09S
MYRTLE BEACH   PTCLDY    81  75  83 W5        30.10R
N MYRTLE BEACH PTCLDY    83  76  79 SW10      30.09S HX  91

$$

GAZ063-065-086>088-099>101-113>116-118-119-134-136>141-150-020500-
...GEORGIA...

CITY           SKY/WX    TMP DP  RH WIND       PRES   REMARKS
SAVANNAH ARPT  PTCLDY    81  76  84 S6        30.11S
HUNTER AAF     PTCLDY    81  77  88 S3        30.09S
FORT STEWART   PTCLDY    79  74  85 S2        30.09F
STATESBORO     NOT AVBL
SYLVANIA       MOCLDY    82  79  91 CALM      30.10F HX  92
CLAXTON        NOT AVBL
THOMSON        CLOUDY    76  76 100 CALM      30.14F
AUGUSTA-BUSH   CLOUDY    77  75  93 W6        30.09S
AUGUSTA-DANIEL CLOUDY    79  74  84 CALM      30.11S
SWAINSBORO     FAIR      81  75  83 W5        30.11F
VIDALIA          N/A     79  75  89 CALM      30.12R
ALMA           MOCLDY    77  70  79 CALM      30.11R
WAYCROSS       MOCLDY    82  78  89 SE5       30.10F HX  90
JESUP            N/A     81  73  78 CALM      30.11S
BRUNSWICK      MOCLDY    82  73  74 S5        30.12S
SAINT SIMONS   MOCLDY    83  74  74 SW5       30.11R

$$

SCZ027-028-034-036>038-045-046-048>050-GAZ119-141-020500-
...LAKE AND SUPPLEMENTAL COASTAL OBSERVATIONS...

STATION/POSITION TIME  TEMP    WIND        PRES    WAVE   SWELL
                       AIR SEA DIR/SP/G            HT/PER HT/PER/DIR
                 (UTC) (F)     (DEG/KT/KT) (MB)    (FT/S) (FT/S/D)
UPR LAKE MARION  NOT AVBL
WINYAH BAY       0300   81     230/  3     1018.0S
LAKE MURRAY      0300   82     190/  6/  7 1017.9F
ACE BASIN NERRS  0300   83        CALM     1019.0S
FORT PULASKI     0400   83     190/  4/  7 1019.5F
SAPELO ISLAND    0300   83     190/  6     1020.0S

$$

ANZ835-935-AMZ111-154-330-350-352-354-374-450-454-472-020500-
...C-MAN AND BUOY OBSERVATIONS...

STATION/POSITION TIME  TEMP    WIND        PRES    WAVE   SWELL
                       AIR SEA DIR/SP/G            HT/PER HT/PER/DIR
                 (UTC) (F)     (DEG/KT/KT) (MB)    (FT/S) (FT/S/D)
FOLLY BEACH CMAN 0300   83     190/ 12/ 13 1019.4S
BUOY 41004       0400   83 83  180/ 10/ 12 1018.8S   2/ 8   2/ 8
BUOY 41008       0400   84 85  180/ 12/ 14 1019.5S   2/ 8   2/ 90/ 8
5E ST. MARYS GA  0400      85                N/A     2/ 8
FRYING PAN BUOY  NOT AVBL
BUOY 41025       0400   82     210/ 17/ 19 1018.1S   4/11   2/110/11
CAPE LOOKOUT NC  0300   81     220/  8/ 10 1018.6F
BUOY 41002       0319   80 84  200/ 12/ 14 1021.1F   3/11   3/ 70/11
BUOY 41010       0400   83 84  140/  8/  8 1020.2S   3/ 8   2/ 80/ 8
BUOY 41012       NOT AVBL
ST AUGUSTINE FL  0400   81     210/  5/  6 1020.4F
CAPERS NEARSHORE 0300   83     200/ 12/ 14   N/A
FRIPP NEARSHORE  NOT AVBL


$$


USA.gov is the U.S. government's official web portal to all federal, state and local government web resources and services.